Year,Month,Day,Hour,Minute,Value (Times are PST for temperature in C)
2015,07,21,01,16,13.20
2015,07,21,01,17,13.20
2015,07,21,01,18,13.20
2015,07,21,01,19,13.20
2015,07,21,01,20,13.20
2015,07,21,01,21,13.20
2015,07,21,01,22,13.20
2015,07,21,01,23,13.20
2015,07,21,01,24,13.20
2015,07,21,01,25,13.20
2015,07,21,01,26,13.20
2015,07,21,01,27,13.20
2015,07,21,01,28,13.20
2015,07,21,01,29,13.20
2015,07,21,01,30,13.20
2015,07,21,01,31,13.20
2015,07,21,01,32,13.20
2015,07,21,01,33,13.20
2015,07,21,01,34,13.20
2015,07,21,01,35,13.20
2015,07,21,01,36,13.20
2015,07,21,01,37,13.20
2015,07,21,01,38,13.20
2015,07,21,01,39,13.20
2015,07,21,01,40,13.20
2015,07,21,01,41,13.20
2015,07,21,01,42,13.20
2015,07,21,01,43,13.20
2015,07,21,01,44,13.20
2015,07,21,01,45,13.20
2015,07,21,01,46,13.90
2015,07,21,01,47,13.90
2015,07,21,01,48,13.90
2015,07,21,01,49,13.90
2015,07,21,01,50,13.90
2015,07,21,01,51,13.90
2015,07,21,01,52,13.90
2015,07,21,01,53,13.90
2015,07,21,01,54,13.90
2015,07,21,01,55,13.90
2015,07,21,01,56,13.90
2015,07,21,01,57,13.90
2015,07,21,01,58,13.90
2015,07,21,01,59,13.90
2015,07,21,02,00,13.90
2015,07,21,02,01,13.90
2015,07,21,02,02,13.90
2015,07,21,02,03,13.90
2015,07,21,02,04,13.90
2015,07,21,02,05,13.90
2015,07,21,02,06,13.90
2015,07,21,02,07,13.90
2015,07,21,02,08,13.90
2015,07,21,02,09,13.90
2015,07,21,02,10,13.90
2015,07,21,02,11,13.90
2015,07,21,02,12,13.90
2015,07,21,02,13,13.90
2015,07,21,02,14,13.90
2015,07,21,02,15,13.90
2015,07,21,02,16,13.80
2015,07,21,02,17,13.80
2015,07,21,02,18,13.80
2015,07,21,02,19,13.80
2015,07,21,02,20,13.80
2015,07,21,02,21,13.80
2015,07,21,02,22,13.80
2015,07,21,02,23,13.80
2015,07,21,02,24,13.80
2015,07,21,02,25,13.80
2015,07,21,02,26,13.80
2015,07,21,02,27,13.80
2015,07,21,02,28,13.80
2015,07,21,02,29,13.80
2015,07,21,02,30,13.80
2015,07,21,02,31,13.80
2015,07,21,02,32,13.80
2015,07,21,02,33,13.80
2015,07,21,02,34,13.80
2015,07,21,02,35,13.80
2015,07,21,02,36,13.80
2015,07,21,02,37,13.80
2015,07,21,02,38,13.80
2015,07,21,02,39,13.80
2015,07,21,02,40,13.80
2015,07,21,02,41,13.80
2015,07,21,02,42,13.80
2015,07,21,02,43,13.80
2015,07,21,02,44,13.80
2015,07,21,02,45,13.80
2015,07,21,02,46,12.80
2015,07,21,02,47,12.80
2015,07,21,02,48,12.80
2015,07,21,02,49,12.80
2015,07,21,02,50,12.80
2015,07,21,02,51,12.80
2015,07,21,02,52,12.80
2015,07,21,02,53,12.80
2015,07,21,02,54,12.80
2015,07,21,02,55,12.80
2015,07,21,02,56,12.80
2015,07,21,02,57,12.80
2015,07,21,02,58,12.80
2015,07,21,02,59,12.80
2015,07,21,03,00,12.80
2015,07,21,03,01,12.80
2015,07,21,03,02,12.80
2015,07,21,03,03,12.80
2015,07,21,03,04,12.80
2015,07,21,03,05,12.80
2015,07,21,03,06,12.80
2015,07,21,03,07,12.80
2015,07,21,03,08,12.80
2015,07,21,03,09,12.80
2015,07,21,03,10,12.80
2015,07,21,03,11,12.80
2015,07,21,03,12,12.80
2015,07,21,03,13,12.80
2015,07,21,03,14,12.80
2015,07,21,03,15,12.80
2015,07,21,03,16,12.60
2015,07,21,03,17,12.60
2015,07,21,03,18,12.60
2015,07,21,03,19,12.60
2015,07,21,03,20,12.60
2015,07,21,03,21,12.60
2015,07,21,03,22,12.60
2015,07,21,03,23,12.60
2015,07,21,03,24,12.60
2015,07,21,03,25,12.60
2015,07,21,03,26,12.60
2015,07,21,03,27,12.60
2015,07,21,03,28,12.60
2015,07,21,03,29,12.60
2015,07,21,03,30,12.60
2015,07,21,03,31,12.60
2015,07,21,03,32,12.60
2015,07,21,03,33,12.60
2015,07,21,03,34,12.60
2015,07,21,03,35,12.60
2015,07,21,03,36,12.60
2015,07,21,03,37,12.60
2015,07,21,03,38,12.60
2015,07,21,03,39,12.60
2015,07,21,03,40,12.60
2015,07,21,03,41,12.60
2015,07,21,03,42,12.60
2015,07,21,03,43,12.60
2015,07,21,03,44,12.60
2015,07,21,03,45,12.60
2015,07,21,03,46,13.10
2015,07,21,03,47,13.10
2015,07,21,03,48,13.10
2015,07,21,03,49,13.10
2015,07,21,03,50,13.10
2015,07,21,03,51,13.10
2015,07,21,03,52,13.10
2015,07,21,03,53,13.10
2015,07,21,03,54,13.10
2015,07,21,03,55,13.10
2015,07,21,03,56,13.10
2015,07,21,03,57,13.10
2015,07,21,03,58,13.10
2015,07,21,03,59,13.10
2015,07,21,04,00,13.10
2015,07,21,04,01,13.10
2015,07,21,04,02,13.10
2015,07,21,04,03,13.10
2015,07,21,04,04,13.10
2015,07,21,04,05,13.10
2015,07,21,04,06,13.10
2015,07,21,04,07,13.10
2015,07,21,04,08,13.10
2015,07,21,04,09,13.10
2015,07,21,04,10,13.10
2015,07,21,04,11,13.10
2015,07,21,04,12,13.10
2015,07,21,04,13,13.10
2015,07,21,04,14,13.10
2015,07,21,04,15,13.10
2015,07,21,04,16,13.50
2015,07,21,04,17,13.50
2015,07,21,04,18,13.50
2015,07,21,04,19,13.50
2015,07,21,04,20,13.50
2015,07,21,04,21,13.50
2015,07,21,04,22,13.50
2015,07,21,04,23,13.50
2015,07,21,04,24,13.50
2015,07,21,04,25,13.50
2015,07,21,04,26,13.50
2015,07,21,04,27,13.50
2015,07,21,04,28,13.50
2015,07,21,04,29,13.50
2015,07,21,04,30,13.50
2015,07,21,04,31,13.50
2015,07,21,04,32,13.50
2015,07,21,04,33,13.50
2015,07,21,04,34,13.50
2015,07,21,04,35,13.50
2015,07,21,04,36,13.50
2015,07,21,04,37,13.50
2015,07,21,04,38,13.50
2015,07,21,04,39,13.50
2015,07,21,04,40,13.50
2015,07,21,04,41,13.50
2015,07,21,04,42,13.50
2015,07,21,04,43,13.50
2015,07,21,04,44,13.50
2015,07,21,04,45,13.50
2015,07,21,04,46,13.20
2015,07,21,04,47,13.20
2015,07,21,04,48,13.20
2015,07,21,04,49,13.20
2015,07,21,04,50,13.20
2015,07,21,04,51,13.20
2015,07,21,04,52,13.20
2015,07,21,04,53,13.20
2015,07,21,04,54,13.20
2015,07,21,04,55,13.20
2015,07,21,04,56,13.20
2015,07,21,04,57,13.20
2015,07,21,04,58,13.20
2015,07,21,04,59,13.20
2015,07,21,05,00,13.20
2015,07,21,05,01,13.20
2015,07,21,05,02,13.20
2015,07,21,05,03,13.20
2015,07,21,05,04,13.20
2015,07,21,05,05,13.20
2015,07,21,05,06,13.20
2015,07,21,05,07,13.20
2015,07,21,05,08,13.20
2015,07,21,05,09,13.20
2015,07,21,05,10,13.20
2015,07,21,05,11,13.20
2015,07,21,05,12,13.20
2015,07,21,05,13,13.20
2015,07,21,05,14,13.20
2015,07,21,05,15,13.20
2015,07,21,05,16,13.10
2015,07,21,05,17,13.10
2015,07,21,05,18,13.10
2015,07,21,05,19,13.10
2015,07,21,05,20,13.10
2015,07,21,05,21,13.10
2015,07,21,05,22,13.10
2015,07,21,05,23,13.10
2015,07,21,05,24,13.10
2015,07,21,05,25,13.10
2015,07,21,05,26,13.10
2015,07,21,05,27,13.10
2015,07,21,05,28,13.10
2015,07,21,05,29,13.10
2015,07,21,05,30,13.10
2015,07,21,05,31,13.10
2015,07,21,05,32,13.10
2015,07,21,05,33,13.10
2015,07,21,05,34,13.10
2015,07,21,05,35,13.10
2015,07,21,05,36,13.10
2015,07,21,05,37,13.10
2015,07,21,05,38,13.10
2015,07,21,05,39,13.10
2015,07,21,05,40,13.10
2015,07,21,05,41,13.10
2015,07,21,05,42,13.10
2015,07,21,05,43,13.10
2015,07,21,05,44,13.10
2015,07,21,05,45,13.10
2015,07,21,05,46,13.10
2015,07,21,05,47,13.10
2015,07,21,05,48,13.10
2015,07,21,05,49,13.10
2015,07,21,05,50,13.10
2015,07,21,05,51,13.10
2015,07,21,05,52,13.10
2015,07,21,05,53,13.10
2015,07,21,05,54,13.10
2015,07,21,05,55,13.10
2015,07,21,05,56,13.10
2015,07,21,05,57,13.10
2015,07,21,05,58,13.10
2015,07,21,05,59,13.10
2015,07,21,06,00,13.10
2015,07,21,06,01,13.10
2015,07,21,06,02,13.10
2015,07,21,06,03,13.10
2015,07,21,06,04,13.10
2015,07,21,06,05,13.10
2015,07,21,06,06,13.10
2015,07,21,06,07,13.10
2015,07,21,06,08,13.10
2015,07,21,06,09,13.10
2015,07,21,06,10,13.10
2015,07,21,06,11,13.10
2015,07,21,06,12,13.10
2015,07,21,06,13,13.10
2015,07,21,06,14,13.10
2015,07,21,06,15,13.10
2015,07,21,06,16,12.80
2015,07,21,06,17,12.80
2015,07,21,06,18,12.80
2015,07,21,06,19,12.80
2015,07,21,06,20,12.80
2015,07,21,06,21,12.80
2015,07,21,06,22,12.80
2015,07,21,06,23,12.80
2015,07,21,06,24,12.80
2015,07,21,06,25,12.80
2015,07,21,06,26,12.80
2015,07,21,06,27,12.80
2015,07,21,06,28,12.80
2015,07,21,06,29,12.80
2015,07,21,06,30,12.80
2015,07,21,06,31,12.80
2015,07,21,06,32,12.80
2015,07,21,06,33,12.80
2015,07,21,06,34,12.80
2015,07,21,06,35,12.80
2015,07,21,06,36,12.80
2015,07,21,06,37,12.80
2015,07,21,06,38,12.80
2015,07,21,06,39,12.80
2015,07,21,06,40,12.80
2015,07,21,06,41,12.80
2015,07,21,06,42,12.80
2015,07,21,06,43,12.80
2015,07,21,06,44,12.80
2015,07,21,06,45,12.80
2015,07,21,06,46,13.00
2015,07,21,06,47,13.00
2015,07,21,06,48,13.00
2015,07,21,06,49,13.00
2015,07,21,06,50,13.00
2015,07,21,06,51,13.00
2015,07,21,06,52,13.00
2015,07,21,06,53,13.00
2015,07,21,06,54,13.00
2015,07,21,06,55,13.00
2015,07,21,06,56,13.00
2015,07,21,06,57,13.00
2015,07,21,06,58,13.00
2015,07,21,06,59,13.00
2015,07,21,07,00,13.00
2015,07,21,07,01,13.00
2015,07,21,07,02,13.00
2015,07,21,07,03,13.00
2015,07,21,07,04,13.00
2015,07,21,07,05,13.00
2015,07,21,07,06,13.00
2015,07,21,07,07,13.00
2015,07,21,07,08,13.00
2015,07,21,07,09,13.00
2015,07,21,07,10,13.00
2015,07,21,07,11,13.00
2015,07,21,07,12,13.00
2015,07,21,07,13,13.00
2015,07,21,07,14,13.00
2015,07,21,07,15,13.00
2015,07,21,07,16,13.00
2015,07,21,07,17,13.20
2015,07,21,07,18,13.20
2015,07,21,07,19,13.20
2015,07,21,07,20,13.20
2015,07,21,07,21,13.20
2015,07,21,07,22,13.20
2015,07,21,07,23,13.20
2015,07,21,07,24,13.20
2015,07,21,07,25,13.20
2015,07,21,07,26,13.20
2015,07,21,07,27,13.20
2015,07,21,07,28,13.20
2015,07,21,07,29,13.20
2015,07,21,07,30,13.20
2015,07,21,07,31,13.20
2015,07,21,07,32,13.20
2015,07,21,07,33,13.20
2015,07,21,07,34,13.20
2015,07,21,07,35,13.20
2015,07,21,07,36,13.20
2015,07,21,07,37,13.20
2015,07,21,07,38,13.20
2015,07,21,07,39,13.20
2015,07,21,07,40,13.20
2015,07,21,07,41,13.20
2015,07,21,07,42,13.20
2015,07,21,07,43,13.20
2015,07,21,07,44,13.20
2015,07,21,07,45,13.20
2015,07,21,07,46,13.20
2015,07,21,07,47,13.20
2015,07,21,07,48,13.20
2015,07,21,07,49,13.20
2015,07,21,07,50,13.20
2015,07,21,07,51,13.20
2015,07,21,07,52,13.20
2015,07,21,07,53,13.20
2015,07,21,07,54,13.20
2015,07,21,07,55,13.20
2015,07,21,07,56,13.20
2015,07,21,07,57,13.20
2015,07,21,07,58,13.20
2015,07,21,07,59,13.20
2015,07,21,08,00,13.20
2015,07,21,08,01,13.20
2015,07,21,08,02,13.20
2015,07,21,08,03,13.20
2015,07,21,08,04,13.20
2015,07,21,08,05,13.20
2015,07,21,08,06,13.20
2015,07,21,08,07,13.20
2015,07,21,08,08,13.20
2015,07,21,08,09,13.20
2015,07,21,08,10,13.20
2015,07,21,08,11,13.20
2015,07,21,08,12,13.20
2015,07,21,08,13,13.20
2015,07,21,08,14,13.20
2015,07,21,08,15,13.20
2015,07,21,08,16,13.00
2015,07,21,08,17,13.00
2015,07,21,08,18,13.00
2015,07,21,08,19,13.00
2015,07,21,08,20,13.00
2015,07,21,08,21,13.00
2015,07,21,08,22,13.00
2015,07,21,08,23,13.00
2015,07,21,08,24,13.00
2015,07,21,08,25,13.00
2015,07,21,08,26,13.00
2015,07,21,08,27,13.00
2015,07,21,08,28,13.00
2015,07,21,08,29,13.00
2015,07,21,08,30,13.00
2015,07,21,08,31,13.00
2015,07,21,08,32,13.00
2015,07,21,08,33,13.00
2015,07,21,08,34,13.00
2015,07,21,08,35,13.00
2015,07,21,08,36,13.00
2015,07,21,08,37,13.00
2015,07,21,08,38,13.00
2015,07,21,08,39,13.00
2015,07,21,08,40,13.00
2015,07,21,08,41,13.00
2015,07,21,08,42,13.00
2015,07,21,08,43,13.00
2015,07,21,08,44,13.00
2015,07,21,08,45,13.00
2015,07,21,08,46,12.90
2015,07,21,08,47,12.90
2015,07,21,08,48,12.90
2015,07,21,08,49,12.90
2015,07,21,08,50,12.90
2015,07,21,08,51,12.90
2015,07,21,08,52,12.90
2015,07,21,08,53,12.90
2015,07,21,08,54,12.90
2015,07,21,08,55,12.90
2015,07,21,08,56,12.90
2015,07,21,08,57,12.90
2015,07,21,08,58,12.90
2015,07,21,08,59,12.90
2015,07,21,09,00,12.90
2015,07,21,09,01,12.90
2015,07,21,09,02,12.90
2015,07,21,09,03,12.90
2015,07,21,09,04,12.90
2015,07,21,09,05,12.90
2015,07,21,09,06,12.90
2015,07,21,09,07,12.90
2015,07,21,09,08,12.90
2015,07,21,09,09,12.90
2015,07,21,09,10,12.90
2015,07,21,09,11,12.90
2015,07,21,09,12,12.90
2015,07,21,09,13,12.90
2015,07,21,09,14,12.90
2015,07,21,09,15,12.90
2015,07,21,09,16,12.50
2015,07,21,09,17,12.50
2015,07,21,09,18,12.50
2015,07,21,09,19,12.50
2015,07,21,09,20,12.50
2015,07,21,09,21,12.50
2015,07,21,09,22,12.50
2015,07,21,09,23,12.50
2015,07,21,09,24,12.50
2015,07,21,09,25,12.50
2015,07,21,09,26,12.50
2015,07,21,09,27,12.50
2015,07,21,09,28,12.50
2015,07,21,09,29,12.50
2015,07,21,09,30,12.50
2015,07,21,09,31,12.50
2015,07,21,09,32,12.50
2015,07,21,09,33,12.50
2015,07,21,09,34,12.50
2015,07,21,09,35,12.50
2015,07,21,09,36,12.50
2015,07,21,09,37,12.50
2015,07,21,09,38,12.50
2015,07,21,09,39,12.50
2015,07,21,09,40,12.50
2015,07,21,09,41,12.50
2015,07,21,09,42,12.50
2015,07,21,09,43,12.50
2015,07,21,09,44,12.50
2015,07,21,09,45,12.50
2015,07,21,09,46,13.30
2015,07,21,09,47,13.30
2015,07,21,09,48,13.30
2015,07,21,09,49,13.30
2015,07,21,09,50,13.30
2015,07,21,09,51,13.30
2015,07,21,09,52,13.30
2015,07,21,09,53,13.30
2015,07,21,09,54,13.30
2015,07,21,09,55,13.30
2015,07,21,09,56,13.30
2015,07,21,09,57,13.30
2015,07,21,09,58,13.30
2015,07,21,09,59,13.30
2015,07,21,10,00,13.30
2015,07,21,10,01,13.30
2015,07,21,10,02,13.30
2015,07,21,10,03,13.30
2015,07,21,10,04,13.30
2015,07,21,10,05,13.30
2015,07,21,10,06,13.30
2015,07,21,10,07,13.30
2015,07,21,10,08,13.30
2015,07,21,10,09,13.30
2015,07,21,10,10,13.30
2015,07,21,10,11,13.30
2015,07,21,10,12,13.30
2015,07,21,10,13,13.30
2015,07,21,10,14,13.30
2015,07,21,10,15,13.30
2015,07,21,10,16,13.70
2015,07,21,10,17,13.70
2015,07,21,10,18,13.70
2015,07,21,10,19,13.70
2015,07,21,10,20,13.70
2015,07,21,10,21,13.70
2015,07,21,10,22,13.70
2015,07,21,10,23,13.70
2015,07,21,10,24,13.70
2015,07,21,10,25,13.70
2015,07,21,10,26,13.70
2015,07,21,10,27,13.70
2015,07,21,10,28,13.70
2015,07,21,10,29,13.70
2015,07,21,10,30,13.70
2015,07,21,10,31,13.70
2015,07,21,10,32,13.70
2015,07,21,10,33,13.70
2015,07,21,10,34,13.70
2015,07,21,10,35,13.70
2015,07,21,10,36,13.70
2015,07,21,10,37,13.70
2015,07,21,10,38,13.70
2015,07,21,10,39,13.70
2015,07,21,10,40,13.70
2015,07,21,10,41,13.70
2015,07,21,10,42,13.70
2015,07,21,10,43,13.70
2015,07,21,10,44,13.70
2015,07,21,10,45,13.70
2015,07,21,10,46,14.20
2015,07,21,10,47,14.20
2015,07,21,10,48,14.20
2015,07,21,10,49,14.20
2015,07,21,10,50,14.20
2015,07,21,10,51,14.20
2015,07,21,10,52,14.20
2015,07,21,10,53,14.20
2015,07,21,10,54,14.20
2015,07,21,10,55,14.20
2015,07,21,10,56,14.20
2015,07,21,10,57,14.20
2015,07,21,10,58,14.20
2015,07,21,10,59,14.20
2015,07,21,11,00,14.20
2015,07,21,11,01,14.20
2015,07,21,11,02,14.20
2015,07,21,11,03,14.20
2015,07,21,11,04,14.20
2015,07,21,11,05,14.20
2015,07,21,11,06,14.20
2015,07,21,11,07,14.20
2015,07,21,11,08,14.20
2015,07,21,11,09,14.20
2015,07,21,11,10,14.20
2015,07,21,11,11,14.20
2015,07,21,11,12,14.20
2015,07,21,11,13,14.20
2015,07,21,11,14,14.20
2015,07,21,11,15,14.20
2015,07,21,11,16,14.90
2015,07,21,11,17,14.90
2015,07,21,11,18,14.90
2015,07,21,11,19,14.90
2015,07,21,11,20,14.90
2015,07,21,11,21,14.90
2015,07,21,11,22,14.90
2015,07,21,11,23,14.90
2015,07,21,11,24,14.90
2015,07,21,11,25,14.90
2015,07,21,11,26,14.90
2015,07,21,11,27,14.90
2015,07,21,11,28,14.90
2015,07,21,11,29,14.90
2015,07,21,11,30,14.90
2015,07,21,11,31,14.90
2015,07,21,11,32,14.90
2015,07,21,11,33,14.90
2015,07,21,11,34,14.90
2015,07,21,11,35,14.90
2015,07,21,11,36,14.90
2015,07,21,11,37,14.90
2015,07,21,11,38,14.90
2015,07,21,11,39,14.90
2015,07,21,11,40,14.90
2015,07,21,11,41,14.90
2015,07,21,11,42,14.90
2015,07,21,11,43,14.90
2015,07,21,11,44,14.90
2015,07,21,11,45,14.90
2015,07,21,11,46,15.00
2015,07,21,11,47,15.00
2015,07,21,11,48,15.00
2015,07,21,11,49,15.00
2015,07,21,11,50,15.00
2015,07,21,11,51,15.00
2015,07,21,11,52,15.00
2015,07,21,11,53,15.00
2015,07,21,11,54,15.00
2015,07,21,11,55,15.00
2015,07,21,11,56,15.00
2015,07,21,11,57,15.00
2015,07,21,11,58,15.00
2015,07,21,11,59,15.00
2015,07,21,12,00,15.00
2015,07,21,12,01,15.00
2015,07,21,12,02,15.00
2015,07,21,12,03,15.00
2015,07,21,12,04,15.00
2015,07,21,12,05,15.00
2015,07,21,12,06,15.00
2015,07,21,12,07,15.00
2015,07,21,12,08,15.00
2015,07,21,12,09,15.00
2015,07,21,12,10,15.00
2015,07,21,12,11,15.00
2015,07,21,12,12,15.00
2015,07,21,12,13,15.00
2015,07,21,12,14,15.00
2015,07,21,12,15,15.00
2015,07,21,12,16,15.50
2015,07,21,12,17,15.50
2015,07,21,12,18,15.50
2015,07,21,12,19,15.50
2015,07,21,12,20,15.50
2015,07,21,12,21,15.50
2015,07,21,12,22,15.50
2015,07,21,12,23,15.50
2015,07,21,12,24,15.50
2015,07,21,12,25,15.50
2015,07,21,12,26,15.50
2015,07,21,12,27,15.50
2015,07,21,12,28,15.50
2015,07,21,12,29,15.50
2015,07,21,12,30,15.50
2015,07,21,12,31,15.50
2015,07,21,12,32,15.50
2015,07,21,12,33,15.50
2015,07,21,12,34,15.50
2015,07,21,12,35,15.50
2015,07,21,12,36,15.50
2015,07,21,12,37,15.50
2015,07,21,12,38,15.50
2015,07,21,12,39,15.50
2015,07,21,12,40,15.50
2015,07,21,12,41,15.50
2015,07,21,12,42,15.50
2015,07,21,12,43,15.50
2015,07,21,12,44,15.50
2015,07,21,12,45,15.50
2015,07,21,12,46,14.80
2015,07,21,12,47,14.80
2015,07,21,12,48,14.80
2015,07,21,12,49,14.80
2015,07,21,12,50,14.80
2015,07,21,12,51,14.80
2015,07,21,12,52,14.80
2015,07,21,12,53,14.80
2015,07,21,12,54,14.80
2015,07,21,12,55,14.80
2015,07,21,12,56,14.80
2015,07,21,12,57,14.80
2015,07,21,12,58,14.80
2015,07,21,12,59,14.80
2015,07,21,13,00,14.80
2015,07,21,13,01,14.80
2015,07,21,13,02,14.80
2015,07,21,13,03,14.80
2015,07,21,13,04,14.80
2015,07,21,13,05,14.80
2015,07,21,13,06,14.80
2015,07,21,13,07,14.80
2015,07,21,13,08,14.80
2015,07,21,13,09,14.80
2015,07,21,13,10,14.80
2015,07,21,13,11,14.80
2015,07,21,13,12,14.80
2015,07,21,13,13,14.80
2015,07,21,13,14,14.80
2015,07,21,13,15,14.80
2015,07,21,13,16,14.80
2015,07,21,13,17,14.80
2015,07,21,13,18,14.80
2015,07,21,13,19,14.80
2015,07,21,13,20,14.80
2015,07,21,13,21,14.80
2015,07,21,13,22,14.80
2015,07,21,13,23,14.80
2015,07,21,13,24,14.80
2015,07,21,13,25,14.80
2015,07,21,13,26,14.80
2015,07,21,13,27,14.80
2015,07,21,13,28,14.80
2015,07,21,13,29,14.80
2015,07,21,13,30,14.80
2015,07,21,13,31,14.80
2015,07,21,13,32,14.80
2015,07,21,13,33,14.80
2015,07,21,13,34,14.80
2015,07,21,13,35,14.80
2015,07,21,13,36,14.80
2015,07,21,13,37,14.80
2015,07,21,13,38,14.80
2015,07,21,13,39,14.80
2015,07,21,13,40,14.80
2015,07,21,13,41,14.80
2015,07,21,13,42,14.80
2015,07,21,13,43,14.80
2015,07,21,13,44,14.80
2015,07,21,13,45,14.80
2015,07,21,13,46,14.60
2015,07,21,13,47,14.60
2015,07,21,13,48,14.60
2015,07,21,13,49,14.60
2015,07,21,13,50,14.60
2015,07,21,13,51,14.60
2015,07,21,13,52,14.60
2015,07,21,13,53,14.60
2015,07,21,13,54,14.60
2015,07,21,13,55,14.60
2015,07,21,13,56,14.60
2015,07,21,13,57,14.60
2015,07,21,13,58,14.60
2015,07,21,13,59,14.60
2015,07,21,14,00,14.60
2015,07,21,14,01,14.60
2015,07,21,14,02,14.60
2015,07,21,14,03,14.60
2015,07,21,14,04,14.60
2015,07,21,14,05,14.60
2015,07,21,14,06,14.60
2015,07,21,14,07,14.60
2015,07,21,14,08,14.60
2015,07,21,14,09,14.60
2015,07,21,14,10,14.60
2015,07,21,14,11,14.60
2015,07,21,14,12,14.60
2015,07,21,14,13,14.60
2015,07,21,14,14,14.60
2015,07,21,14,15,14.60
2015,07,21,14,16,14.30
2015,07,21,14,17,14.30
2015,07,21,14,18,14.30
2015,07,21,14,19,14.30
2015,07,21,14,20,14.30
2015,07,21,14,21,14.30
2015,07,21,14,22,14.30
2015,07,21,14,23,14.30
2015,07,21,14,24,14.30
2015,07,21,14,25,14.30
2015,07,21,14,26,14.30
2015,07,21,14,27,14.30
2015,07,21,14,28,14.30
2015,07,21,14,29,14.30
2015,07,21,14,30,14.30
2015,07,21,14,31,14.30
2015,07,21,14,32,14.30
2015,07,21,14,33,14.30
2015,07,21,14,34,14.30
2015,07,21,14,35,14.30
2015,07,21,14,36,14.30
2015,07,21,14,37,14.30
2015,07,21,14,38,14.30
2015,07,21,14,39,14.30
2015,07,21,14,40,14.30
2015,07,21,14,41,14.30
2015,07,21,14,42,14.30
2015,07,21,14,43,14.30
2015,07,21,14,44,14.30
2015,07,21,14,45,14.30
2015,07,21,14,46,14.20
2015,07,21,14,47,14.20
2015,07,21,14,48,14.20
2015,07,21,14,49,14.20
2015,07,21,14,50,14.20
2015,07,21,14,51,14.20
2015,07,21,14,52,14.20
2015,07,21,14,53,14.20
2015,07,21,14,54,14.20
2015,07,21,14,55,14.20
2015,07,21,14,56,14.20
2015,07,21,14,57,14.20
2015,07,21,14,58,14.20
2015,07,21,14,59,14.20
2015,07,21,15,00,14.20
2015,07,21,15,01,14.20
2015,07,21,15,02,14.20
2015,07,21,15,03,14.20
2015,07,21,15,04,14.20
2015,07,21,15,05,14.20
2015,07,21,15,06,14.20
2015,07,21,15,07,14.20
2015,07,21,15,08,14.20
2015,07,21,15,09,14.20
2015,07,21,15,10,14.20
2015,07,21,15,11,14.20
2015,07,21,15,12,14.20
2015,07,21,15,13,14.20
2015,07,21,15,14,14.20
2015,07,21,15,15,14.20
2015,07,21,15,16,14.30
2015,07,21,15,17,14.30
2015,07,21,15,18,14.30
2015,07,21,15,19,14.30
2015,07,21,15,20,14.30
2015,07,21,15,21,14.30
2015,07,21,15,22,14.30
2015,07,21,15,23,14.30
2015,07,21,15,24,14.30
2015,07,21,15,25,14.30
2015,07,21,15,26,14.30
2015,07,21,15,27,14.30
2015,07,21,15,28,14.30
2015,07,21,15,29,14.30
2015,07,21,15,30,14.30
2015,07,21,15,31,14.30
2015,07,21,15,32,14.30
2015,07,21,15,33,14.30
2015,07,21,15,34,14.30
2015,07,21,15,35,14.30
2015,07,21,15,36,14.30
2015,07,21,15,37,14.30
2015,07,21,15,38,14.30
2015,07,21,15,39,14.30
2015,07,21,15,40,14.30
2015,07,21,15,41,14.30
2015,07,21,15,42,14.30
2015,07,21,15,43,14.30
2015,07,21,15,44,14.30
2015,07,21,15,45,14.30
2015,07,21,15,46,14.80
2015,07,21,15,47,14.80
2015,07,21,15,48,14.80
2015,07,21,15,49,14.80
2015,07,21,15,50,14.80
2015,07,21,15,51,14.80
2015,07,21,15,52,14.80
2015,07,21,15,53,14.80
2015,07,21,15,54,14.80
2015,07,21,15,55,14.80
2015,07,21,15,56,14.80
2015,07,21,15,57,14.80
2015,07,21,15,58,14.80
2015,07,21,15,59,14.80
2015,07,21,16,00,14.80
2015,07,21,16,01,14.80
2015,07,21,16,02,14.80
2015,07,21,16,03,14.80
2015,07,21,16,04,14.80
2015,07,21,16,05,14.80
2015,07,21,16,06,14.80
2015,07,21,16,07,14.80
2015,07,21,16,08,14.80
2015,07,21,16,09,14.80
2015,07,21,16,10,14.80
2015,07,21,16,11,14.80
2015,07,21,16,12,14.80
2015,07,21,16,13,14.80
2015,07,21,16,14,14.80
2015,07,21,16,15,14.80
2015,07,21,16,16,14.80
2015,07,21,16,17,14.80
2015,07,21,16,18,14.80
2015,07,21,16,19,14.80
2015,07,21,16,20,14.80
2015,07,21,16,21,14.80
2015,07,21,16,22,14.80
2015,07,21,16,23,14.80
2015,07,21,16,24,14.80
2015,07,21,16,25,14.80
2015,07,21,16,26,14.80
2015,07,21,16,27,14.80
2015,07,21,16,28,14.80
2015,07,21,16,29,14.80
2015,07,21,16,30,14.80
2015,07,21,16,31,14.80
2015,07,21,16,32,14.80
2015,07,21,16,33,14.80
2015,07,21,16,34,14.80
2015,07,21,16,35,14.80
2015,07,21,16,36,14.80
2015,07,21,16,37,14.80
2015,07,21,16,38,14.80
2015,07,21,16,39,14.80
2015,07,21,16,40,14.80
2015,07,21,16,41,14.80
2015,07,21,16,42,14.80
2015,07,21,16,43,14.80
2015,07,21,16,44,14.80
2015,07,21,16,45,14.80
2015,07,21,16,46,15.10
2015,07,21,16,47,15.10
2015,07,21,16,48,15.10
2015,07,21,16,49,15.10
2015,07,21,16,50,15.10
2015,07,21,16,51,15.10
2015,07,21,16,52,15.10
2015,07,21,16,53,15.10
2015,07,21,16,54,15.10
2015,07,21,16,55,15.10
2015,07,21,16,56,15.10
2015,07,21,16,57,15.10
2015,07,21,16,58,15.10
2015,07,21,16,59,15.10
2015,07,21,17,00,15.10
2015,07,21,17,01,15.10
2015,07,21,17,02,15.10
2015,07,21,17,03,15.10
2015,07,21,17,04,15.10
2015,07,21,17,05,15.10
2015,07,21,17,06,15.10
2015,07,21,17,07,15.10
2015,07,21,17,08,15.10
2015,07,21,17,09,15.10
2015,07,21,17,10,15.10
2015,07,21,17,11,15.10
2015,07,21,17,12,15.10
2015,07,21,17,13,15.10
2015,07,21,17,14,15.10
2015,07,21,17,15,15.10
2015,07,21,17,16,14.90
2015,07,21,17,17,14.90
2015,07,21,17,18,14.90
2015,07,21,17,19,14.90
2015,07,21,17,20,14.90
2015,07,21,17,21,14.90
2015,07,21,17,22,14.90
2015,07,21,17,23,14.90
2015,07,21,17,24,14.90
2015,07,21,17,25,14.90
2015,07,21,17,26,14.90
2015,07,21,17,27,14.90
2015,07,21,17,28,14.90
2015,07,21,17,29,14.90
2015,07,21,17,30,14.90
2015,07,21,17,31,14.90
2015,07,21,17,32,14.90
2015,07,21,17,33,14.90
2015,07,21,17,34,14.90
2015,07,21,17,35,14.90
2015,07,21,17,36,14.90
2015,07,21,17,37,14.90
2015,07,21,17,38,14.90
2015,07,21,17,39,14.90
2015,07,21,17,40,14.90
2015,07,21,17,41,14.90
2015,07,21,17,42,14.90
2015,07,21,17,43,14.90
2015,07,21,17,44,14.90
2015,07,21,17,45,14.90
2015,07,21,17,46,14.90
2015,07,21,17,47,14.90
2015,07,21,17,48,14.90
2015,07,21,17,49,14.90
2015,07,21,17,50,14.90
2015,07,21,17,51,14.90
2015,07,21,17,52,14.90
2015,07,21,17,53,14.90
2015,07,21,17,54,14.90
2015,07,21,17,55,14.90
2015,07,21,17,56,14.90
2015,07,21,17,57,14.90
2015,07,21,17,58,14.90
2015,07,21,17,59,14.90
2015,07,21,18,00,14.90
2015,07,21,18,01,14.90
2015,07,21,18,02,14.90
2015,07,21,18,03,14.90
2015,07,21,18,04,14.90
2015,07,21,18,05,14.90
2015,07,21,18,06,14.90
2015,07,21,18,07,14.90
2015,07,21,18,08,14.90
2015,07,21,18,09,14.90
2015,07,21,18,10,14.90
2015,07,21,18,11,14.90
2015,07,21,18,12,14.90
2015,07,21,18,13,14.90
2015,07,21,18,14,14.90
2015,07,21,18,15,14.90
2015,07,21,18,16,15.20
2015,07,21,18,17,15.20
2015,07,21,18,18,15.20
2015,07,21,18,19,15.20
2015,07,21,18,20,15.20
2015,07,21,18,21,15.20
2015,07,21,18,22,15.20
2015,07,21,18,23,15.20
2015,07,21,18,24,15.20
2015,07,21,18,25,15.20
2015,07,21,18,26,15.20
2015,07,21,18,27,15.20
2015,07,21,18,28,15.20
2015,07,21,18,29,15.20
2015,07,21,18,30,15.20
2015,07,21,18,31,15.20
2015,07,21,18,32,15.20
2015,07,21,18,33,15.20
2015,07,21,18,34,15.20
2015,07,21,18,35,15.20